Lamar, CO

6:18 PM MDT on August 18, 2017 (GMT -0600)
Lamar Municipal

Weather History for KLAA - October, 2010

Change the Weather History Date:

Saturday, October 2, 2010

  Actual Average Record
Temperature  
Mean Temperature 56 °F 59 °F  
Max Temperature 63 °F 76 °F 97 °F (2005)
Min Temperature 49 °F 42 °F 30 °F (1999)
Degree Days  
Heating Degree Days 9 7  
Month to date heating degree days 9 13  
Since 1 July heating degree days 20 96  
Cooling Degree Days 0 1  
Month to date cooling degree days 0 2  
Year to date cooling degree days 1447 1114  
Growing Degree Days 7 (Base 50)    
Moisture  
Dew Point 42 °F    
Average Humidity 59    
Maximum Humidity 77    
Minimum Humidity 41    
Precipitation  
Precipitation 0.00 in 0.03 in 0.28 in (1923)
Month to date precipitation 0.00  
Year to date precipitation 11.41  
Snow  
Snow 0.00 in - - ()
Month to date snowfall 0.0  
Snow Depth 0.00 in    
Sea Level Pressure  
Sea Level Pressure 30.27 in    
Wind  
Wind Speed 10 mph (East)    
Max Wind Speed 20 mph    
Max Gust Speed 25 mph    
Visibility 10 miles    
Events      
T = Trace of Precipitation, MM = Missing Value Source: NWS Daily Summary

Daily Weather History Graph

Daily Weather History Graph

Search for Another Location

Airport or City:

Trip Planner

Search our weather history database for the weather conditions in past years. The results will help you decide how hot, cold, wet, or windy it might be!

Date:

Astronomy

Oct. 02, 2010 Rise Set
Actual Time 6:47 AM MDT 6:32 PM MDT
Civil Twilight 6:21 AM MDT 6:58 PM MDT
Nautical Twilight 5:50 AM MDT 7:28 PM MDT
Astronomical Twilight 5:19 AM MDT 7:59 PM MDT
Moon 12:40 AM MDT (10/2) 3:15 PM MDT (10/2)
Length of Visible Light 12h 37m
Length of Day
11h 44m
Waning Crescent, 33% of the Moon is Illuminated
Oct 2
Waning Crescent
Oct 7
New
Oct 14
First Quarter
Oct 22
Full
Oct 30
Last Quarter

Hourly Weather History & Observations

Time (MDT) Temp. Dew Point Humidity Pressure Visibility Wind Dir Wind Speed Gust Speed Precip Events Conditions
12:53 AM 55.0 °F 46.9 °F 74% 30.12 in 10.0 mi ENE 5.8 mph - N/A   Clear
1:53 AM 54.0 °F 46.9 °F 77% 30.13 in 10.0 mi Calm Calm - N/A   Clear
2:53 AM 55.9 °F 48.0 °F 75% 30.14 in 10.0 mi ENE 4.6 mph - N/A   Partly Cloudy
3:53 AM 57.9 °F 46.0 °F 65% 30.16 in 10.0 mi NE 12.7 mph - N/A   Clear
4:53 AM 57.0 °F 43.0 °F 59% 30.17 in 10.0 mi East 15.0 mph 24.2 mph N/A   Clear
5:53 AM 54.0 °F 43.0 °F 66% 30.21 in 10.0 mi East 15.0 mph 21.9 mph N/A   Partly Cloudy
6:53 AM 51.1 °F 44.1 °F 77% 30.28 in 10.0 mi ENE 6.9 mph - N/A   Clear
7:53 AM 51.1 °F 44.1 °F 77% 30.33 in 10.0 mi ENE 15.0 mph - N/A   Clear
8:53 AM 53.1 °F 44.1 °F 71% 30.35 in 10.0 mi ENE 11.5 mph - N/A   Scattered Clouds
9:00 AM 51.8 °F 44.6 °F 76% 30.42 in 10.0 mi ENE 12.7 mph - N/A   Mostly Cloudy
9:53 AM 52.0 °F 43.0 °F 71% 30.37 in 10.0 mi ENE 9.2 mph - N/A   Overcast
10:38 AM 53.6 °F 42.8 °F 67% 30.43 in 10.0 mi East 8.1 mph - N/A   Mostly Cloudy
10:53 AM 54.0 °F 43.0 °F 66% 30.37 in 10.0 mi ENE 9.2 mph - N/A   Mostly Cloudy
11:53 AM 55.9 °F 42.1 °F 60% 30.35 in 10.0 mi ENE 11.5 mph 16.1 mph N/A   Overcast
12:53 PM 57.0 °F 42.1 °F 57% 30.33 in 10.0 mi East 6.9 mph - N/A   Mostly Cloudy
1:53 PM 59.0 °F 42.1 °F 53% 30.29 in 10.0 mi ENE 8.1 mph - N/A   Scattered Clouds
2:53 PM 60.1 °F 43.0 °F 53% 30.26 in 10.0 mi ENE 11.5 mph - N/A   Mostly Cloudy
3:53 PM 63.0 °F 42.1 °F 46% 30.22 in 10.0 mi East 13.8 mph - N/A   Scattered Clouds
4:53 PM 62.1 °F 41.0 °F 46% 30.22 in 10.0 mi East 13.8 mph 20.7 mph N/A   Overcast
5:53 PM 60.1 °F 39.9 °F 47% 30.23 in 10.0 mi East 12.7 mph - N/A   Overcast
6:53 PM 57.0 °F 37.9 °F 49% 30.23 in 10.0 mi East 8.1 mph - N/A   Scattered Clouds
7:53 PM 55.0 °F 37.9 °F 53% 30.25 in 10.0 mi ESE 5.8 mph - N/A   Clear
8:53 PM 52.0 °F 37.0 °F 57% 30.25 in 10.0 mi East 5.8 mph - N/A   Clear
9:53 PM 54.0 °F 34.0 °F 47% 30.28 in 10.0 mi East 8.1 mph - N/A   Overcast
10:53 PM 54.0 °F 30.9 °F 41% 30.25 in 10.0 mi ESE 8.1 mph - N/A   Clear
11:53 PM 52.0 °F 30.9 °F 45% 30.25 in 10.0 mi ESE 9.2 mph - N/A   Clear